CDT,Max TemperatureF,Mean TemperatureF,Min TemperatureF,Max Dew PointF,MeanDew PointF,Min DewpointF,Max Humidity, Mean Humidity, Min Humidity, Max Sea Level PressureIn, Mean Sea Level PressureIn, Min Sea Level PressureIn, Max VisibilityMiles, Mean VisibilityMiles, Min VisibilityMiles, Max Wind SpeedMPH, Mean Wind SpeedMPH, Max Gust SpeedMPH,PrecipitationIn, CloudCover, Events, WindDirDegrees
2013-3-1,27,18,9,14,11,7,92,74,53,30.44,30.40,30.31,10,10,1,9,6,,0.00,1,,19
2013-3-2,23,13,3,12,5,0,92,76,53,30.42,30.31,30.16,10,6,0,12,3,,0.00,2,Fog,137
2013-3-3,27,22,16,17,12,9,81,65,49,30.14,30.03,29.94,10,10,10,22,12,30,0.00,4,,127
2013-3-4,23,22,21,20,18,17,93,86,78,30.03,29.90,29.84,10,3,0,22,17,30,0.01,8,Fog-Snow,119
2013-3-5,28,23,18,21,19,14,93,83,66,30.39,30.14,29.94,10,5,1,16,10,22,0.04,8,Snow,7
2013-3-6,23,18,10,15,12,8,93,81,68,30.48,30.41,30.31,10,10,8,9,4,,0.00,6,,283
2013-3-7,25,16,6,15,10,3,92,81,63,30.40,30.32,30.26,10,6,2,20,9,25,0.00,3,,128
2013-3-8,30,21,12,28,19,10,93,82,69,30.31,30.21,30.01,10,4,2,15,6,,0.13,4,Rain,112
2013-3-9,33,32,28,32,30,24,100,90,85,30.04,29.84,29.70,6,2,0,16,9,23,0.91,8,Fog-Rain-Snow,73
2013-3-10,26,20,15,22,18,10,88,81,74,30.13,30.03,29.86,10,9,6,18,14,28,0.00,7,,355
2013-3-11,21,13,5,15,10,2,87,77,71,30.04,29.92,29.82,10,10,10,13,9,,0.00,5,,326
2013-3-12,23,18,12,16,12,9,86,77,65,30.31,30.06,29.82,10,9,2,24,11,29,0.00,5,Snow,319
2013-3-13,24,11,1,17,9,-2,92,80,65,30.44,30.34,30.20,10,10,7,14,7,,0.00,3,,279
2013-3-14,34,28,21,26,22,18,93,84,70,30.19,30.11,30.04,10,6,2,14,9,,0.00,5,Snow,146
2013-3-15,30,26,21,27,24,19,93,87,82,30.06,29.93,29.83,10,3,0,13,9,20,0.11,8,Fog-Rain-Snow,47
2013-3-16,21,11,1,18,5,-5,86,78,67,30.35,30.18,29.96,10,9,3,15,10,,0.00,3,Snow,338
2013-3-17,23,10,-2,19,7,-8,93,76,65,30.35,30.00,29.67,10,7,0,25,13,36,0.02,6,Fog-Snow,119
2013-3-18,30,18,6,28,13,1,93,83,74,29.96,29.65,29.45,7,2,0,29,22,41,0.05,8,Fog-Snow,264
2013-3-19,12,5,-2,1,-3,-8,80,67,54,30.34,30.17,29.87,10,10,6,23,17,29,0.00,1,,305
2013-3-20,14,4,-5,3,-3,-9,83,69,56,30.37,30.30,30.23,10,10,10,18,14,,0.00,0,,306
2013-3-21,23,10,-2,7,1,-6,87,70,52,30.21,30.16,30.12,10,10,10,7,3,,0.00,0,,4
2013-3-22,28,12,-2,14,6,-5,88,71,49,30.17,30.14,30.11,10,10,8,7,2,,0.00,0,,308
2013-3-23,28,18,7,19,12,2,84,75,66,30.23,30.19,30.14,10,10,10,10,5,,0.00,2,,301
2013-3-24,30,23,16,25,20,12,88,80,67,30.18,30.09,30.04,10,5,1,15,8,21,0.00,7,Snow,9
2013-3-25,32,24,17,19,16,10,78,69,56,30.35,30.25,30.17,10,10,10,16,11,20,0.00,4,,335
2013-3-26,32,20,9,18,12,6,88,73,52,30.38,30.35,30.32,10,10,10,9,5,,0.00,0,,309
2013-3-27,34,23,12,21,15,8,92,73,54,30.38,30.34,30.27,10,8,1,8,3,,0.00,1,,123
2013-3-28,37,30,23,26,22,15,78,70,61,30.35,30.32,30.28,10,10,10,14,8,,0.00,4,,127
2013-3-29,42,34,27,35,30,25,92,80,67,30.28,30.18,29.99,10,7,3,13,7,,0.00,5,,130
2013-3-30,41,34,30,37,33,28,100,92,81,29.99,29.92,29.87,9,2,0,20,10,32,0.18,4,Fog-Rain-Thunderstorm,290
2013-3-31,32,24,16,30,20,7,100,76,56,30.22,29.98,29.82,10,8,1,26,15,37,0.00,4,,317